TimeCEST,TemperatureF,Dew PointF,Humidity,Sea Level PressureIn,VisibilityMPH,Wind Direction,Wind SpeedMPH,Gust SpeedMPH,PrecipitationIn,Events,Conditions,WindDirDegrees,DateUTC
7:00 AM,33.8,32.0,93,30.27,-9999.0,ENE,11.5,-,N/A,,Clear,70,2013-04-20 05:00:00
7:30 AM,33.8,32.0,93,30.27,-9999.0,ENE,17.3,-,N/A,,Clear,60,2013-04-20 05:30:00
8:00 AM,33.8,32.0,93,30.27,-9999.0,ENE,16.1,-,N/A,,Clear,60,2013-04-20 06:00:00
8:30 AM,35.6,32.0,87,30.27,-9999.0,ENE,13.8,-,N/A,,Clear,70,2013-04-20 06:30:00
9:00 AM,37.4,33.8,87,30.27,-9999.0,ENE,16.1,-,N/A,,Clear,70,2013-04-20 07:00:00
9:30 AM,39.2,33.8,81,30.27,-9999.0,ENE,19.6,-,N/A,,Clear,60,2013-04-20 07:30:00
10:00 AM,39.2,33.8,81,30.27,-9999.0,ENE,18.4,-,N/A,,Clear,70,2013-04-20 08:00:00
10:30 AM,41.0,33.8,76,30.30,-9999.0,ENE,19.6,-,N/A,,Clear,70,2013-04-20 08:30:00
11:00 AM,42.8,33.8,70,30.27,-9999.0,ENE,16.1,-,N/A,,Clear,70,2013-04-20 09:00:00
11:30 AM,44.6,33.8,66,30.27,-9999.0,ENE,17.3,-,N/A,,Clear,70,2013-04-20 09:30:00
12:00 PM,46.4,35.6,66,30.27,-9999.0,ENE,13.8,-,N/A,,Clear,70,2013-04-20 10:00:00
12:30 PM,48.2,35.6,62,30.27,-9999.0,ENE,16.1,-,N/A,,Clear,70,2013-04-20 10:30:00
1:00 PM,50.0,35.6,58,30.27,-9999.0,ENE,17.3,-,N/A,,Clear,60,2013-04-20 11:00:00
1:30 PM,50.0,35.6,58,30.24,-9999.0,ENE,16.1,-,N/A,,Clear,60,2013-04-20 11:30:00
2:00 PM,51.8,35.6,54,30.24,-9999.0,East,13.8,-,N/A,,Clear,80,2013-04-20 12:00:00
2:30 PM,53.6,33.8,47,30.24,-9999.0,ENE,13.8,-,N/A,,Clear,60,2013-04-20 12:30:00
3:00 PM,53.6,35.6,51,30.24,-9999.0,ENE,11.5,-,N/A,,Clear,60,2013-04-20 13:00:00
3:30 PM,53.6,35.6,51,30.21,-9999.0,ENE,12.7,-,N/A,,Clear,70,2013-04-20 13:30:00
4:00 PM,55.4,32.0,41,30.21,-9999.0,ENE,11.5,-,N/A,,Clear,70,2013-04-20 14:00:00
4:30 PM,55.4,35.6,47,30.18,-9999.0,ENE,9.2,-,N/A,,Clear,70,2013-04-20 14:30:00
5:00 PM,55.4,33.8,44,30.18,-9999.0,ENE,10.4,-,N/A,,Clear,70,2013-04-20 15:00:00
5:30 PM,55.4,32.0,41,30.18,-9999.0,ENE,9.2,-,N/A,,Clear,70,2013-04-20 15:30:00
6:00 PM,55.4,35.6,47,30.18,-9999.0,ENE,10.4,-,N/A,,Clear,70,2013-04-20 16:00:00
6:30 PM,55.4,33.8,44,30.15,-9999.0,ENE,11.5,-,N/A,,Clear,70,2013-04-20 16:30:00
7:00 PM,55.4,33.8,44,30.15,-9999.0,ENE,11.5,-,N/A,,Clear,70,2013-04-20 17:00:00
7:30 PM,55.4,35.6,47,30.15,-9999.0,ENE,9.2,-,N/A,,Clear,70,2013-04-20 17:30:00
8:00 PM,53.6,32.0,44,30.15,-9999.0,ENE,10.4,-,N/A,,Clear,70,2013-04-20 18:00:00
8:30 PM,51.8,35.6,54,30.15,-9999.0,ENE,9.2,-,N/A,,Clear,70,2013-04-20 18:30:00
9:00 PM,48.2,35.6,62,30.15,-9999.0,ENE,8.1,-,N/A,,Clear,70,2013-04-20 19:00:00
9:30 PM,42.8,33.8,70,30.15,-9999.0,ENE,9.2,-,N/A,,Clear,60,2013-04-20 19:30:00